Location: Dreilärchen
(47.9312°N, 8.6113°E)
Time: 03:05:48
(UTC+00:00)

Cosmos 1603 - Pass Details

Date: 26 May 2022
Orbit: 829 x 861 km, 71.0° (Epoch: 26 June)

Event Time Altitude Azimuth Distance (km) Brightness Sun altitude
Exits shadow 02:19:36 - 186° (S) 2,680 5.8 -10.4°
Reaches altitude 10° 02:20:14 10° 185° (S) 2,441 5.6 -10.3°
Maximum altitude 02:25:39 52° 110° (ESE) 1,037 4.3 -9.7°
Drops below altitude 10° 02:31:08 10° 36° (NE) 2,477 7.8 -9.1°
Sets 02:33:39 0° 31° (NNE) 3,421 8.8 -8.8°
